| time (UTC) | temp F | wind direction | speed knots | gust knots | rain 1hr in | rain 24hr in | rain mn in | humidity % | barometer mb |
| 20260503190010 | 51 | 207 | 0.0 | 3.5 | 0.03 | 0.03 | 0.03 | 41 | 1013.9 |
| 20260503184515 | 51 | 231 | 3.5 | 14.8 | 0.01 | 0.01 | 0.01 | 55 | 1014.3 |
| 20260503183014 | 53 | 227 | 2.6 | 13.0 | 0.00 | 0.00 | 0.00 | 61 | 1014.5 |
| 20260503181509 | 55 | 226 | 6.1 | 13.9 | 0.00 | 0.00 | 0.00 | 60 | 1014.3 |
| 20260503180010 | 58 | 127 | 11.3 | 22.6 | 0.00 | 0.00 | 0.00 | 50 | 1013.7 |
| 20260503174507 | 59 | 217 | 7.0 | 13.9 | 0.00 | 0.00 | 0.00 | 49 | 1013.7 |
| 20260503173005 | 59 | 183 | 6.1 | 15.6 | 0.00 | 0.00 | 0.00 | 47 | 1013.9 |
| 20260503171504 | 59 | 191 | 7.0 | 13.0 | 0.00 | 0.00 | 0.00 | 48 | 1014.0 |
| 20260503081508 | 40 | 183 | 0.0 | 0.0 | 0.00 | 0.00 | 0.00 | 55 | 1016.0 |
| 20260503071505 | 40 | 183 | 0.0 | 0.0 | 0.00 | 0.00 | 0.00 | 52 | 1016.2 |
| 20260503054521 | 41 | 183 | 0.0 | 0.0 | 0.00 | 0.00 | 0.00 | 33 | 1016.8 |
| 20260503053006 | 41 | 183 | 0.0 | 0.0 | 0.00 | 0.00 | 0.00 | 35 | 1016.8 |
| 20260503051504 | 41 | 183 | 0.0 | 0.0 | 0.00 | 0.00 | 0.00 | 38 | 1016.9 |
| 20260503050002 | 41 | 183 | 0.0 | 0.0 | 0.00 | 0.00 | 0.00 | 42 | 1016.9 |
| 20260503044502 | 41 | 183 | 0.0 | 0.0 | 0.00 | 0.00 | 0.00 | 43 | 1016.9 |
| 20260503043105 | 42 | 183 | 0.0 | 0.0 | 0.00 | 0.00 | 0.00 | 48 | 1016.9 |
| 20260503041600 | 42 | 183 | 0.0 | 0.0 | 0.00 | 0.00 | 0.00 | 50 | 1016.9 |
| 20260503040121 | 42 | 183 | 0.0 | 0.0 | 0.00 | 0.00 | 0.00 | 54 | 1017.0 |
| 20260503034600 | 43 | 183 | 0.0 | 0.0 | 0.00 | 0.00 | 0.00 | 57 | 1017.0 |
| 20260503033100 | 43 | 184 | 0.0 | 0.0 | 0.00 | 0.00 | 0.00 | 59 | 1016.9 |
| 20260503031548 | 43 | 184 | 0.0 | 0.0 | 0.00 | 0.00 | 0.00 | 62 | 1017.0 |
| 20260503030047 | 43 | 185 | 0.0 | 0.0 | 0.00 | 0.00 | 0.00 | 64 | 1017.1 |
| 20260503024529 | 44 | 185 | 0.0 | 0.0 | 0.00 | 0.00 | 0.00 | 65 | 1017.0 |
| 20260503023027 | 44 | 185 | 0.0 | 0.0 | 0.00 | 0.00 | 0.00 | 65 | 1017.1 |
| 20260503021528 | 45 | 185 | 0.0 | 0.0 | 0.00 | 0.00 | 0.00 | 64 | 1017.1 |
| 20260503020028 | 46 | 185 | 0.0 | 0.0 | 0.00 | 0.00 | 0.00 | 62 | 1017.0 |
| 20260503014527 | 47 | 185 | 0.0 | 0.0 | 0.00 | 0.00 | 0.00 | 60 | 1016.8 |
| 20260503013031 | 48 | 185 | 0.0 | 0.0 | 0.00 | 0.00 | 0.00 | 58 | 1016.7 |
| 20260503011526 | 49 | 185 | 0.0 | 0.0 | 0.00 | 0.00 | 0.00 | 55 | 1016.7 |
| 20260503010027 | 50 | 185 | 0.0 | 0.0 | 0.00 | 0.00 | 0.00 | 45 | 1016.7 |
| 20260503004510 | 51 | 185 | 0.0 | 0.0 | 0.00 | 0.00 | 0.00 | 41 | 1016.7 |
| 20260503003007 | 52 | 185 | 0.0 | 1.7 | 0.00 | 0.00 | 0.00 | 39 | 1016.7 |
| 20260503001601 | 52 | 192 | 0.0 | 2.6 | 0.00 | 0.00 | 0.00 | 39 | 1016.6 |
| 20260503000048 | 53 | 315 | 0.0 | 2.6 | 0.00 | 0.00 | 0.00 | 38 | 1016.6 |
| 20260502234541 | 53 | 269 | 0.0 | 1.7 | 0.00 | 0.00 | 0.00 | 37 | 1016.6 |
| 20260502233037 | 54 | 331 | 0.0 | 2.6 | 0.00 | 0.00 | 0.00 | 35 | 1016.6 |
| 20260502231534 | 54 | 28 | 0.9 | 3.5 | 0.00 | 0.00 | 0.00 | 36 | 1016.7 |
| 20260502230036 | 54 | 204 | 2.6 | 6.1 | 0.00 | 0.00 | 0.00 | 36 | 1016.7 |
| 20260502224534 | 53 | 239 | 0.9 | 6.1 | 0.00 | 0.00 | 0.00 | 37 | 1016.7 |
| 20260502223033 | 55 | 163 | 0.9 | 6.1 | 0.00 | 0.00 | 0.00 | 35 | 1016.8 |
| 20260502221537 | 55 | 261 | 0.9 | 5.2 | 0.00 | 0.00 | 0.00 | 36 | 1016.7 |
| 20260502220030 | 54 | 305 | 2.6 | 7.0 | 0.00 | 0.00 | 0.00 | 34 | 1016.8 |
| 20260502214517 | 54 | 311 | 0.9 | 7.0 | 0.00 | 0.00 | 0.00 | 33 | 1016.8 |
| 20260502213017 | 54 | 285 | 1.7 | 6.1 | 0.00 | 0.00 | 0.00 | 35 | 1016.7 |
| 20260502211516 | 53 | 309 | 1.7 | 6.1 | 0.00 | 0.00 | 0.00 | 37 | 1016.7 |
| 20260502210014 | 53 | 313 | 0.9 | 6.1 | 0.00 | 0.00 | 0.00 | 35 | 1016.8 |
| 20260502204514 | 53 | 20 | 2.6 | 5.2 | 0.00 | 0.00 | 0.00 | 36 | 1016.9 |
| 20260502203011 | 52 | 293 | 2.6 | 5.2 | 0.00 | 0.00 | 0.00 | 37 | 1017.1 |
| 20260502201511 | 53 | 30 | 1.7 | 5.2 | 0.00 | 0.00 | 0.00 | 36 | 1017.2 |
| 20260502200010 | 54 | 176 | 2.6 | 8.7 | 0.00 | 0.00 | 0.00 | 38 | 1017.2 |
| 20260502194506 | 54 | 24 | 0.9 | 5.2 | 0.00 | 0.00 | 0.00 | 39 | 1017.5 |
| 20260502193007 | 53 | 53 | 1.7 | 6.1 | 0.00 | 0.00 | 0.00 | 38 | 1017.7 |
| 20260502191559 | 53 | 234 | 2.6 | 7.0 | 0.00 | 0.00 | 0.00 | 40 | 1017.7 |